Location: Kaiser
(34.0939°N, 117.4889°W)
Time: 02:59:27
(UTC+00:00)

Nadezhda 4 Rocket - Pass Details

Date: 29 October 2020
Orbit: 950 x 991 km, 82.9° (Epoch: 26 November)

Event Time Altitude Azimuth Distance (km) Brightness Sun altitude
Rises 12:00:26 0° 190° (S) 3,607 6.9 -26.8°
Reaches altitude 10° 12:02:55 10° 192° (SSW) 2,665 6.2 -26.3°
Maximum altitude 12:09:00 73° 276° (W) 994 3.8 -25.0°
Drops below altitude 10° 12:15:08 10° 2° (N) 2,689 6.3 -23.8°
Sets 12:17:39 0° 4° (N) 3,643 7.0 -23.2°
